STARLINK-5984 (56329 NORAD) Tracking and Keplerian Element Data

This shows tracking and keplerian element data for the satellite.

Feedback or suggestion? Click here.




ElementValue
Catalog56329
NameSTARLINK-5984
Epoch Orbit179
Epoch Day126.91667824
Epoch Year2023
RAAN126.3818
Inclination97.6631
Eccentricity0.0001594
Argument of Perigee100.2338
Mean Anonmoly116.6367
Mean Motion15.68187587
Decay Rate-0.00797867
L11 56329U 23058N 23126.91667824 -.00797867 00000+0 -78861-2 0 9997
L22 56329 97.6631 126.3818 0001594 100.2338 116.6367 15.68187587 1797



Live tracking and technical data element details for STARLINK-5984 (NORAD 56329). STARLINK-5984 can be tracked NOW for your location showing map with azimuth and elevation plus other details from your city location.







IsCatalogInMostPopularTable: catalog: 56329, numindb: 2
Update: records affected: 1



GetName: 56329 STARLINK-5984

Hit Count: updated at: Sat, 03 Jun 2023 18:09:16 GMT